User: anonymous   Login
Location: Spaichingen
(48.0400°N, 8.4300°E)
Time: 03:34:12
(UTC+02:00)
Language:

Tiangong 2 - Orbit

View from above orbital plane
View from above orbital plane
View from above satellite
View from above satellite

Ground track
Ground track

The orbit data is extracted from the following two-line orbital elements,

1 41765U 16057A   19167.87133856  .00002837  00000-0  36293-4 0  9994
2 41765  42.7840 328.6797 0008978 265.9749 203.0904 15.61740265156991
Epoch (UTC): 16 June 2019 20:54:43
Eccentricity: 0.0008978
inclination: 42.7840°
perigee height: 376 km
apogee height: 389 km
right ascension of ascending node: 328.6797°
argument of perigee: 265.9749°
revolutions per day: 15.61740265
mean anomaly at epoch: 203.0904°
orbit number at epoch: 15699

The dashed part of the orbit path shows where the satellite is in the earth's shadow,  

DLR